RH
70 71 83 96 97 97 97 93 96 89 90 89 86 89 86 83 77 79 81 81 78 83 96 94 92 93 81 72 66 67 73 76 78 72 69 77 88 95 77 81 84 91 87
64 74 83 92 94 96 96 93 90 83 89 88 86 90 90 82 90 90 89 87 81 76 84 93 92 94 95 95 89 78 77 77 74 74 77 82 89 82 85 87 88 91 91
68 79 91 97 90 92 92 82 84 90 91 86 88 95 98 89 91 83 86 91 86 81 89 87 79 90 92 89 89 86 81 78 78 80 86 88 85 88 96 86 90 90 91
72 85 94 92 94 91 89 85 85 92 88 89 92 90 93 85 89 91 90 92 92 94 92 81 78 80 84 86 87 80 77 75 80 79 85 86 96 93 83 86 93 94 94
71 85 94 94 97 94 88 87 91 88 86 91 88 86 84 84 81 91 95 90 82 84 83 77 77 67 72 84 84 77 75 76 78 79 78 89 91 96 91 96 94 94 94
70 78 87 98 95 92 90 89 90 92 87 87 86 85 82 82 83 87 91 80 85 85 76 74 76 73 76 81 82 74 74 82 83 81 81 88 91 95 96 94 91 92 92
65 72 85 98 91 94 86 82 86 92 92 92 84 84 82 86 84 89 82 70 63 69 75 74 75 73 76 79 77 74 82 83 82 83 83 83 86 97 92 87 88 92 92
61 72 90 97 95 87 85 85 84 92 94 89 84 84 84 86 83 86 92 77 69 66 71 74 79 75 87 82 75 76 82 83 82 84 80 82 96 95 94 91 92 87 90
58 72 87 97 96 91 84 82 85 86 90 91 85 86 85 83 84 90 94 89 83 76 76 78 86 89 88 89 84 79 84 83 84 82 84 81 93 99 100 100 95 85 95
58 66 82 92 96 91 87 87 85 85 90 92 90 87 83 78 80 87 88 90 90 71 78 81 86 93 89 92 81 77 79 78 84 87 88 88 96 100 100 100 100 100 100
58 61 64 75 82 86 85 84 85 90 85 84 91 88 86 89 85 86 80 87 89 84 76 78 84 98 99 87 89 80 83 94 99 87 96 99 100 100 100 99 98 98 98
62 63 63 64 71 72 82 80 87 84 81 92 89 91 98 93 85 81 75 81 82 84 84 86 94 88 85 97 88 83 94 94 86 99 100 99 100 98 98 98 98 99 99
68 72 75 70 68 72 83 84 88 78 86 81 92 96 91 90 86 82 86 100 96 91 93 100 97 94 93 95 90 99 100 99 100 100 100 100 100 99 99 99 99 99 100
77 78 77 76 70 77 78 77 82 81 82 82 86 86 93 97 98 100 100 100 100 100 100 99 98 95 91 93 98 99 100 100 100 100 100 99 99 100 100 100 100 100 100
81 75 83 78 78 77 82 79 80 86 79 86 93 94 100 99 98 98 99 99 99 100 98 100 100 100 100 100 100 99 100 98 94 95 97 96 96 99 97 95 95 94 94
80 75 84 82 79 75 84 83 77 89 83 96 99 95 99 96 98 100 100 100 100 100 99 99 100 100 100 100 100 100 100 97 95 86 92 95 91 92 93 86 86 86 86
69 75 80 86 87 76 86 83 81 92 89 99 98 94 97 99 99 100 100 100 100 100 99 98 100 100 100 99 100 98 96 92 88 85 85 87 84 84 88 84 89 85 83
85 98 73 79 91 84 87 90 91 92 98 99 96 95 95 96 98 98 99 100 100 100 100 96 99 100 99 97 94 92 89 86 85 82 83 84 84 86 84 81 83 80 80
83 98 100 80 90 88 95 97 95 94 98 99 96 93 92 94 95 93 98 100 100 99 98 97 98 94 94 93 89 87 81 77 75 77 81 86 84 83 86 87 82 82 84
83 90 98 99 96 97 94 96 97 88 95 95 93 92 94 95 97 96 100 100 100 100 100 98 91 89 85 83 86 86 81 73 71 73 77 82 85 87 85 83 85 86 84
84 92 97 99 99 100 98 96 96 96 94 91 87 86 89 95 99 99 100 100 100 100 100 94 91 89 89 84 74 62 58 61 56 54 59 67 76 73 80 86 86 88 92
87 95 97 99 99 99 100 94 92 91 84 80 83 82 90 96 99 100 99 100 100 100 99 92 89 95 91 79 71 61 71 50 41 42 41 48 57 62 76 79 84 84 86
89 96 98 100 100 98 100 99 90 85 80 75 80 78 65 81 94 97 98 97 98 99 99 92 88 91 89 83 71 72 89 90 51 39 33 33 35 41 46 53 69 65 61
89 94 98 99 100 100 100 99 92 86 79 75 80 76 62 53 69 92 92 95 95 96 93 92 90 87 79 84 58 53 53 60 71 62 38 35 35 32 31 37 52 61 54
90 94 97 97 98 99 100 100 97 85 78 75 75 73 63 52 42 68 90 91 94 92 90 88 91 88 75 71 61 40 48 54 46 56 64 42 36 38 36 38 39 43 45
89 94 96 96 97 100 99 99 100 88 80 78 76 70 66 58 47 41 56 80 84 86 86 83 84 80 74 66 49 33 35 34 37 41 55 48 44 42 39 40 38 39 45
Wind_Speed
12 16 22 20 18 17 16 15 13 12 12 10 8 7 7 5 7 7 7 7 8 8 10 11 12 10 11 11 11 12 14 12 13 14 15 18 22 23 25 25 23 24 24
16 16 23 19 19 16 15 14 14 12 12 10 8 8 7 7 7 7 7 7 8 10 11 11 13 12 12 12 12 13 15 16 16 17 20 22 24 26 24 23 24 25 24
17 17 21 20 20 17 16 14 14 11 14 10 10 10 8 8 9 8 9 8 9 10 11 12 14 14 14 14 13 14 17 19 19 21 22 24 25 24 22 24 26 26 26
16 16 21 21 18 18 15 15 13 13 12 10 10 10 9 8 9 9 9 9 9 11 12 13 15 14 14 15 16 16 19 20 22 22 20 24 20 23 24 27 27 27 28
16 15 19 19 18 18 15 15 13 13 12 11 10 9 9 9 8 8 9 9 9 11 12 15 18 17 16 17 18 19 21 23 23 18 20 22 23 23 25 26 27 27 29
17 15 19 18 18 17 14 13 13 12 11 11 10 10 10 9 7 7 10 10 9 9 11 14 17 19 19 19 20 23 24 22 17 21 23 22 24 25 25 27 29 29 28
17 18 18 18 18 17 13 10 11 11 10 10 10 10 10 9 8 9 10 12 7 7 10 13 17 20 20 23 22 26 22 17 21 19 21 23 26 25 26 27 29 29 29
19 17 18 19 17 17 15 12 11 10 10 10 10 11 11 9 8 11 11 12 11 10 10 13 19 23 21 18 21 25 20 20 20 20 20 20 25 29 29 29 32 29 29
20 17 18 20 19 17 15 14 12 11 10 10 10 10 10 10 12 13 11 10 9 9 10 14 21 24 23 19 20 23 21 21 21 20 22 22 24 27 29 30 32 28 25
19 18 17 17 19 19 17 15 14 12 11 11 11 11 10 10 11 14 15 17 14 12 14 18 15 29 28 23 24 21 18 20 23 26 26 26 28 31 32 34 35 34 31
16 18 17 20 16 17 16 17 13 12 11 10 10 8 7 8 12 13 14 16 17 15 19 28 29 21 32 28 20 21 23 23 28 31 32 33 34 34 33 32 31 30 29
16 18 17 18 19 19 21 16 12 13 8 9 8 11 13 10 10 11 14 16 18 20 24 31 34 29 29 26 25 20 21 27 31 31 33 35 34 34 32 31 30 29 28
16 18 13 15 16 19 20 17 14 13 13 12 14 16 13 9 7 5 9 19 19 23 27 38 38 33 30 24 24 29 35 40 39 36 32 34 32 32 30 28 27 26 25
14 17 17 16 16 16 16 15 16 16 16 16 14 13 14 12 10 11 18 27 26 33 37 41 38 38 33 27 34 35 41 39 39 33 31 32 29 29 27 26 24 23 21
20 20 20 20 16 17 17 17 15 15 17 17 13 12 17 15 13 15 20 21 36 42 41 40 39 41 40 38 37 40 42 41 36 32 30 30 29 28 25 24 22 21 21
21 21 23 22 16 20 19 17 19 16 16 16 16 13 16 17 20 21 27 33 36 35 39 38 37 41 40 39 38 41 40 36 35 35 32 27 28 27 25 23 22 22 22
17 22 21 23 18 22 20 17 19 18 17 19 22 20 20 24 25 28 33 37 37 40 42 40 37 42 39 37 36 37 36 36 36 35 32 31 29 25 23 22 21 22 21
35 10 20 23 13 20 22 20 21 20 18 20 23 23 23 25 26 29 29 34 39 40 47 43 38 38 37 35 33 30 30 28 30 30 30 29 28 27 23 21 20 20 20
33 30 15 14 21 20 21 24 22 22 18 22 23 23 22 23 26 28 33 38 38 39 43 44 37 38 34 38 37 37 34 32 28 26 23 22 25 25 25 24 21 19 19
35 33 27 19 18 16 23 21 19 20 19 20 20 21 22 24 27 31 35 39 39 41 40 40 44 39 38 37 38 38 35 29 24 24 23 20 19 22 22 23 23 22 19
39 40 36 30 20 16 27 23 22 23 22 21 18 21 23 26 29 33 38 39 39 38 37 42 44 46 39 41 35 32 31 27 20 17 18 19 19 20 17 19 21 23 21
37 39 38 36 30 23 13 27 21 25 23 21 22 22 25 28 31 35 40 39 38 38 37 41 44 33 31 33 19 24 4 11 18 15 13 15 17 17 18 17 14 15 17
39 39 38 36 34 26 22 10 22 26 20 21 25 26 26 28 32 36 39 41 39 38 38 40 41 39 29 16 26 9 4 3 9 9 12 11 12 14 14 16 15 11 11
37 37 37 35 35 30 24 21 28 26 23 23 29 29 29 29 32 36 39 41 41 40 41 42 42 34 31 29 15 9 9 20 4 3 6 11 11 11 13 14 15 12 11
35 36 36 35 35 36 26 21 23 29 25 28 27 29 31 31 30 34 37 39 38 39 40 42 41 35 37 36 29 20 18 19 16 6 3 9 12 12 12 11 13 12 10
36 38 38 39 34 36 33 23 11 27 28 29 29 32 31 32 32 34 35 36 38 37 36 34 35 37 34 36 29 28 27 10 12 9 4 9 13 12 12 11 11 12 11
Wind_Direction
159 166 167 161 163 165 168 166 168 171 176 187 186 188 189 181 182 178 175 173 170 172 169 173 168 160 161 161 161 168 173 165 151 151 142 139 132 130 126 122 125 122 123
166 169 164 163 165 163 168 169 167 174 183 186 190 191 197 193 187 184 185 191 181 185 181 179 174 162 156 147 154 153 151 152 148 143 138 136 133 130 131 132 127 122 119
160 167 162 166 166 166 175 174 171 185 187 193 191 190 191 197 198 195 196 193 195 192 185 183 183 167 160 163 159 151 144 142 140 139 135 134 136 133 135 135 126 120 116
159 167 166 169 168 171 175 173 177 180 185 191 189 192 197 200 202 199 201 199 201 191 185 184 182 173 168 164 159 152 147 142 137 132 135 140 134 137 137 132 125 121 117
157 165 173 168 170 172 176 173 175 182 181 190 198 198 194 201 195 190 196 201 204 194 192 188 184 180 176 173 162 152 147 140 136 137 147 147 144 141 137 131 126 122 119
158 164 181 169 169 168 175 172 176 182 185 197 200 205 204 205 201 186 189 189 183 192 195 194 187 178 181 175 164 153 144 141 139 151 152 155 150 147 141 138 132 125 122
160 177 181 171 172 173 171 182 186 183 187 199 205 210 214 210 209 208 205 194 196 187 189 198 189 186 179 176 164 153 150 149 147 141 151 161 154 146 141 136 130 122 117
165 178 178 172 173 173 174 182 196 185 188 204 208 215 218 204 211 216 222 221 224 204 198 201 191 179 168 169 160 154 148 145 145 146 143 148 151 135 131 133 124 113 114
172 169 179 173 174 173 177 190 199 214 203 206 211 217 219 213 216 220 217 211 205 170 179 181 173 179 164 164 170 159 145 150 143 140 132 133 118 112 110 104 116 110 121
172 173 176 181 180 179 181 188 194 206 200 204 213 219 220 217 224 230 229 224 217 187 169 177 167 165 160 170 172 150 144 153 144 137 129 126 118 106 103 103 104 106 108
174 182 184 182 180 179 185 185 192 193 205 215 215 216 196 194 219 229 232 229 220 200 179 148 148 144 150 160 154 151 150 131 133 127 120 115 111 106 103 103 103 104 102
188 189 187 190 176 178 176 170 187 188 179 174 190 155 169 186 225 239 229 218 209 194 182 173 156 163 160 150 144 139 127 123 119 113 115 113 109 107 106 103 100 98 98
200 194 203 180 186 170 159 158 166 155 163 160 168 167 170 175 212 176 191 182 191 186 189 158 156 152 146 141 139 128 124 111 110 104 104 104 104 102 100 100 98 98 96
209 190 206 191 193 166 170 177 171 166 174 172 170 182 181 154 143 138 156 161 141 158 137 139 155 151 149 144 135 123 117 112 110 109 105 103 100 101 103 102 101 99 98
204 211 202 200 189 179 179 181 176 173 187 182 179 186 179 160 148 145 145 151 130 132 139 132 137 141 134 138 135 122 118 116 114 108 104 104 104 100 100 102 101 102 101
195 209 205 201 203 194 180 176 180 176 185 171 164 166 170 161 151 146 143 152 145 141 141 137 134 131 125 123 118 119 114 117 114 109 101 102 98 98 102 104 107 106 105
213 203 213 205 209 194 188 171 176 177 178 168 162 163 154 148 147 146 145 142 140 142 141 138 124 128 122 113 114 111 114 115 112 112 115 112 107 106 106 108 109 108 108
14 336 204 211 217 182 186 178 163 173 169 167 165 169 166 160 156 146 143 145 144 135 135 134 126 119 116 112 108 106 104 105 110 114 117 116 116 114 110 110 109 110 111
8 9 9 203 218 187 180 185 185 179 176 167 163 165 168 171 170 168 157 150 150 143 138 135 126 121 113 112 108 104 103 104 107 110 111 119 121 122 119 118 113 114 110
4 6 6 8 242 200 187 179 177 185 174 173 175 174 171 173 175 173 165 160 156 146 140 137 137 132 120 110 103 97 101 107 113 115 113 120 127 122 127 127 122 112 110
6 2 1 352 342 350 171 173 174 172 172 169 177 180 179 176 177 175 166 161 153 145 142 144 141 138 125 125 105 87 89 96 102 115 125 124 126 123 130 133 131 125 117
3 358 354 350 341 329 332 177 178 174 174 171 168 171 180 173 175 174 167 156 151 142 140 145 147 137 136 134 134 121 98 78 94 106 124 129 133 138 133 129 138 141 135
360 356 350 345 340 332 318 243 175 171 170 167 168 166 166 175 173 175 170 165 157 151 148 150 152 148 153 154 151 139 136 149 136 106 118 133 140 148 146 146 141 150 150
355 352 352 348 346 338 329 326 177 170 173 178 170 171 167 171 174 177 174 169 166 162 163 165 165 156 154 152 167 146 149 140 142 137 131 142 151 155 152 152 156 159 153
358 356 352 352 349 346 336 342 220 174 179 175 172 170 169 172 171 176 179 173 171 171 172 174 171 173 172 171 176 145 127 140 133 137 145 168 145 156 151 158 157 156 165
359 0 358 354 353 351 348 341 307 186 171 167 172 172 174 174 175 176 176 179 180 180 176 174 174 177 174 172 173 163 153 157 168 147 123 149 140 146 161 169 170 171 164